Regional Weather Roundup
Issued by NWS Boston, MA

Current Version | Previous Version | Text Only | Print | Product List | Glossary Off
Versions: 1 2 3 4 5 6 7 8 9 10 11 12 13 14 15 16 17 18 19 20 21 22 23 24 25 26 27 28

000
ASUS41 KBOX 191210
RWRBOX

REGIONAL WEATHER ROUNDUP
NATIONAL WEATHER SERVICE TAUNTON MA
800 AM EDT TUE SEP 19 2017

NOTE:  "FAIR" INDICATES FEW OR NO CLOUDS BELOW 12,000 FEET WITH NO
SIGNIFICANT WEATHER AND/OR OBSTRUCTIONS TO VISIBILITY.

MAZALL-191300-
EASTERN MASSACHUSETTS

CITY           SKY/WX    TMP DP  RH WIND       PRES   REMARKS
BOSTON         CLOUDY    64  63  96 N12       30.12S
6HR MIN TEMP:  63; 6HR MAX TEMP:  64;

BEVERLY        CLOUDY    63  62  97 NE7       30.12F FOG
LAWRENCE       CLOUDY    65  62  90 NE8       30.15F FOG
BEDFORD        CLOUDY    63  60  90 N7        30.12F FOG
BLUE HILL        N/A     63  62  97 NE12      30.11S
NORWOOD        CLOUDY    66  65  96 N3        30.10F FOG
MARSHFIELD     FOG       64  64 100 VRB7      30.10S VSB<1/4
PLYMOUTH       FOG       65  63  93 NE10      30.09S VSB 1/4
TAUNTON        CLOUDY    65  63  93 VRB7      30.09S FOG
NEW BEDFORD    LGT RAIN  65  64  97 NE8       30.06S FOG
$$

MAZALL-191300-
CAPE COD AND THE ISLANDS

CITY           SKY/WX    TMP DP  RH WIND       PRES   REMARKS
FALMOUTH       DRZL/FOG  66  66 100 NE12      30.07F VSB 1/2
HYANNIS        LGT RAIN  68  67  96 NE9       30.04F FOG
CHATHAM        LGT RAIN  66  66 100 NE10      30.07F VSB 1/4
PROVINCETOWN   LGT RAIN  64  63  96 NE13      30.09F VSB 1/2
NANTUCKET      FOG       65  65 100 NE17G24   30.03S VSB 1/2
MARTHAS VNYRD  LGT RAIN  69  67  93 NE10      30.03F FOG
$$

MAZALL-191300-
CENTRAL AND WESTERN MASSACHUSETTS

CITY           SKY/WX    TMP DP  RH WIND       PRES   REMARKS
WORCESTER      FOG       61  59  93 NE9       30.13S VSB 1/4
6HR MIN TEMP:  60; 6HR MAX TEMP:  61;

FITCHBURG      CLOUDY    65  63  93 N5        30.15S
ORANGE         CLOUDY    64  62  93 NE7       30.14R
SPRINGFIELD    PTSUNNY   66  60  80 NE7       30.10S
WESTFIELD      CLOUDY    66  63  90 N8        30.11S
NORTH ADAMS    CLOUDY    58  57  97 CALM      30.13S
PITTSFIELD     CLOUDY    63  59  87 NE7       30.12S
$$

RIZALL-191300-
RHODE ISLAND

CITY           SKY/WX    TMP DP  RH WIND       PRES   REMARKS
PROVIDENCE     LGT RAIN  66  66 100 NE14      30.09S FOG
6HR MIN TEMP:  65; 6HR MAX TEMP:  66; 6HR PCP:  0.02;

NEWPORT        LGT RAIN  66  66 100 NE15      30.05F
BLOCK ISLAND   CLOUDY    66  65  96 NE16G24   30.03F
SMITHFIELD     CLOUDY    64  63  96 NE9       30.10F FOG
WESTERLY       LGT RAIN  67  65  93 NE9G21    30.04F
$$

CTZALL-191300-
CONNECTICUT

CITY           SKY/WX    TMP DP  RH WIND       PRES   REMARKS
BRADLEY INTL   CLOUDY    67  62  84 NE15      30.10S
6HR MIN TEMP:  66; 6HR MAX TEMP:  67;

HARTFORD       CLOUDY    67  63  87 N10       30.08S
BRIDGEPORT     MOSUNNY   69  64  84 NE17      30.02F
DANBURY        CLOUDY    68  64  87 NE9       30.08S
GROTON         CLOUDY    67  64  90 NE14G22   30.03S
NEW HAVEN      PTSUNNY   68  63  84 N15       30.03F
CHESTER        CLOUDY    68  64  88 NE8       30.06S
MERIDEN        CLOUDY    67  62  84 N9        30.06F
WILLIMANTIC    CLOUDY    66  64  93 NE9       30.08S
OXFORD         CLOUDY    65  63  93 NE12G17   30.08F
$$

MEZ002-015-021-024-NHZ003-005-008-011-012-014-VTZ005-008-191300-
NORTHERN NEW ENGLAND

CITY           SKY/WX    TMP DP  RH WIND       PRES   REMARKS
PORTLAND ME    CLOUDY    62  60  93 NE9       30.17F FOG
6HR MIN TEMP:  60; 6HR MAX TEMP:  62;

BANGOR ME      FOG       63  61  93 N3        30.21R VSB 1
CONCORD NH     CLOUDY    64  62  93 N6        30.15F
MANCHESTER NH  CLOUDY    64  63  96 N5        30.13S FOG
NASHUA NH      CLOUDY    64  63  96 N3        30.15S FOG
PORTSMOUTH NH  CLOUDY    62  61  99 NE8       30.14S FOG
JAFFREY NH     CLOUDY    63  63 100 CALM      30.16S FOG
KEENE NH       CLOUDY    65  62  90 E3        30.14F
BURLINGTON VT  CLOUDY    68  60  75 SE5       30.12S
MT. WASHINGTON PTSUNNY   54  39  58 SE6         N/A
$$

NYZ052-076-191300-
EASTERN NEW YORK

CITY           SKY/WX    TMP DP  RH WIND       PRES   REMARKS
ALBANY         FOG       61  60  97 NW5       30.12S VSB 1/2
6HR MIN TEMP:  59; 6HR MAX TEMP:  64;

NEW YORK CITY  CLOUDY    71  66  84 NE16      30.00F
6HR MIN TEMP:  71; 6HR MAX TEMP:  71;

$$

ANZALL-191300-
MARINE OBSERVATIONS

STATION/POSITION TIME  TEMP    WIND        PRES    VSBY  WAVE
                       AIR SEA DIR/SP/G                  HT/PER
                 (UTC) (F)     (DEG/KT/KT) (MB)    (MI)  (FT/S)
BOSTON BUOY      1050   64 64   30/ 14/ 16 1019.6          3/13
BUZZARDS BAY     1200   66      40/ 22/ 26 1017.1F
NANTUCKET SOUND  1050   64 67   40/ 16/ 19 1017.2          2/ 4
MASS BAY-STELLWA 1104   64 64   30/ 14/ 16 1019.2R         3/ 4
ISLE OF SHOALS   1200   60      30/ 17/ 20 1020.2F
S OF BLOCK IS    NOT AVBL
$$

......................KEY.........................
  SKY/WX - SKY CONDITION/PRESENT WEATHER
  TMP    - TEMPERATURE IN FAHRENHEIT
  DWPT   - DEWPOINT IN FAHRENHEIT
  RH     - RELATIVE HUMIDITY IN PERCENT
  WIND   - DIRECTION AND SPEED IN MPH
  PRES   - MEAN SEA LEVEL PRESSURE IN INCHES OF HG
  WCI    - WIND CHILL INDEX
  VSB    - VISIBILITY IN MILES
  HX     - HEAT INDEX
  TC     - TEMPERATURE IN CELSIUS
  VRB    - VARIABLE WIND DIRECTION
  N/A    - NOT AVAILABLE




USA.gov is the U.S. government's official web portal to all federal, state and local government web resources and services.